Time,TemperatureF,DewpointF,PressureIn,WindDirection,WindDirectionDegrees,WindSpeedMPH,WindSpeedGustMPH,Humidity,HourlyPrecipIn,Conditions,Clouds,dailyrainin,SoftwareType,DateUTC
2015-05-23 00:02:00,54.3,50.0,30.11,NNW,329,0.0,0.0,84,0.00,,,0.00,,2015-05-23 07:02:00,
2015-05-23 00:12:00,54.6,50.0,30.11,NNW,328,0.0,0.0,84,0.00,,,0.00,,2015-05-23 07:12:00,
2015-05-23 00:22:00,54.4,50.0,30.11,NNW,331,0.0,0.0,84,0.00,,,0.00,,2015-05-23 07:22:00,
2015-05-23 00:32:00,54.8,50.0,30.11,NNW,330,0.0,0.0,85,0.00,,,0.00,,2015-05-23 07:32:00,
2015-05-23 00:42:00,55.0,51.0,30.11,NNW,330,0.0,0.0,85,0.00,,,0.00,,2015-05-23 07:42:00,
2015-05-23 00:52:00,55.0,51.0,30.11,NNW,330,0.0,0.0,85,0.00,,,0.00,,2015-05-23 07:52:00,
2015-05-23 01:02:00,55.0,51.0,30.11,NNW,330,0.0,0.0,85,0.00,,,0.00,,2015-05-23 08:02:00,
2015-05-23 01:22:00,55.2,51.0,30.10,NW,322,0.0,0.0,85,0.00,,,0.00,,2015-05-23 08:22:00,
2015-05-23 01:32:00,55.4,51.0,30.10,NW,321,0.0,0.0,85,0.00,,,0.00,,2015-05-23 08:32:00,
2015-05-23 01:42:00,55.3,51.0,30.10,NW,310,0.0,0.0,85,0.00,,,0.00,,2015-05-23 08:42:00,
2015-05-23 01:52:00,55.3,51.0,30.10,WNW,298,0.0,1.0,85,0.00,,,0.00,,2015-05-23 08:52:00,
2015-05-23 02:02:00,55.3,51.0,30.10,West,275,3.0,5.0,86,0.00,,,0.00,,2015-05-23 09:02:00,
2015-05-23 02:12:00,55.4,51.0,30.10,WNW,294,5.0,5.0,85,0.00,,,0.00,,2015-05-23 09:12:00,
2015-05-23 02:22:00,55.3,51.0,30.10,WNW,302,4.0,5.0,85,0.00,,,0.00,,2015-05-23 09:22:00,
2015-05-23 02:32:00,55.3,51.0,30.09,WNW,300,6.0,6.0,85,0.00,,,0.00,,2015-05-23 09:32:00,
2015-05-23 02:42:00,55.2,51.0,30.09,WNW,298,3.0,3.0,85,0.00,,,0.00,,2015-05-23 09:42:00,
2015-05-23 02:52:00,55.0,51.0,30.10,WNW,302,0.0,4.0,85,0.00,,,0.00,,2015-05-23 09:52:00,
2015-05-23 03:02:00,55.0,50.0,30.10,NW,323,3.0,6.0,84,0.00,,,0.00,,2015-05-23 10:02:00,
2015-05-23 03:12:00,55.1,50.0,30.10,NW,317,3.0,4.0,84,0.00,,,0.00,,2015-05-23 10:12:00,
2015-05-23 03:22:00,55.3,50.0,30.10,NNW,327,0.0,0.0,83,0.00,,,0.00,,2015-05-23 10:22:00,
2015-05-23 03:32:00,55.5,50.0,30.10,NW,315,0.0,0.0,83,0.00,,,0.00,,2015-05-23 10:32:00,
2015-05-23 03:42:00,55.5,50.0,30.10,NW,313,0.0,0.0,82,0.00,,,0.00,,2015-05-23 10:42:00,
2015-05-23 03:52:00,55.5,50.0,30.10,WNW,292,4.0,5.0,82,0.00,,,0.00,,2015-05-23 10:52:00,
2015-05-23 04:02:00,55.5,50.0,30.10,WNW,303,0.0,0.0,82,0.00,,,0.00,,2015-05-23 11:02:00,
2015-05-23 04:12:00,55.6,50.0,30.10,NW,312,0.0,0.0,82,0.00,,,0.00,,2015-05-23 11:12:00,
2015-05-23 04:22:00,55.7,50.0,30.10,NW,307,5.0,5.0,82,0.00,,,0.00,,2015-05-23 11:22:00,
2015-05-23 04:32:00,55.5,50.0,30.10,NW,304,0.0,0.0,82,0.00,,,0.00,,2015-05-23 11:32:00,
2015-05-23 04:42:00,55.2,50.0,30.10,NW,313,0.0,0.0,82,0.00,,,0.00,,2015-05-23 11:42:00,
2015-05-23 04:52:00,55.2,50.0,30.10,NW,313,0.0,0.0,83,0.00,,,0.00,,2015-05-23 11:52:00,
2015-05-23 05:02:00,55.1,50.0,30.10,NW,321,0.0,0.0,83,0.00,,,0.00,,2015-05-23 12:02:00,
2015-05-23 05:12:00,55.1,50.0,30.09,NW,321,0.0,0.0,83,0.00,,,0.00,,2015-05-23 12:12:00,
2015-05-23 05:22:00,55.3,50.0,30.10,NW,320,0.0,0.0,82,0.00,,,0.00,,2015-05-23 12:22:00,
2015-05-23 05:32:00,55.4,50.0,30.10,NNE,32,0.0,0.0,82,0.00,,,0.00,,2015-05-23 12:32:00,
2015-05-23 05:42:00,55.6,50.0,30.10,NNE,30,0.0,0.0,82,0.00,,,0.00,,2015-05-23 12:42:00,
2015-05-23 05:52:00,55.7,50.0,30.10,NNE,30,0.0,0.0,82,0.00,,,0.00,,2015-05-23 12:52:00,
2015-05-23 06:02:00,55.8,50.0,30.10,NNE,19,0.0,0.0,81,0.00,,,0.00,,2015-05-23 13:02:00,
2015-05-23 06:12:00,55.8,50.0,30.10,NNE,19,0.0,0.0,81,0.00,,,0.00,,2015-05-23 13:12:00,
2015-05-23 06:22:00,55.8,50.0,30.11,NNE,19,0.0,0.0,81,0.00,,,0.00,,2015-05-23 13:22:00,
2015-05-23 06:32:00,55.8,50.0,30.11,WNW,301,0.0,0.0,81,0.00,,,0.00,,2015-05-23 13:32:00,
2015-05-23 06:42:00,55.8,50.0,30.11,NW,304,0.0,0.0,81,0.00,,,0.00,,2015-05-23 13:42:00,
2015-05-23 06:52:00,56.0,50.0,30.12,NW,317,0.0,0.0,81,0.00,,,0.00,,2015-05-23 13:52:00,
2015-05-23 07:02:00,56.1,50.0,30.12,NW,324,1.0,2.0,80,0.00,,,0.00,,2015-05-23 14:02:00,
2015-05-23 07:12:00,56.3,50.0,30.12,NW,323,0.0,0.0,80,0.00,,,0.00,,2015-05-23 14:12:00,
2015-05-23 07:22:00,56.6,51.0,30.12,WNW,293,2.0,5.0,80,0.00,,,0.00,,2015-05-23 14:22:00,
2015-05-23 07:32:00,56.6,51.0,30.12,WNW,294,5.0,6.0,80,0.00,,,0.00,,2015-05-23 14:32:00,
2015-05-23 07:42:00,56.9,51.0,30.12,WNW,295,4.0,6.0,81,0.00,,,0.00,,2015-05-23 14:42:00,
2015-05-23 07:52:00,57.0,51.0,30.12,WNW,282,2.0,4.0,81,0.00,,,0.00,,2015-05-23 14:52:00,
2015-05-23 08:02:00,56.8,51.0,30.12,NW,310,5.0,5.0,81,0.00,,,0.00,,2015-05-23 15:02:00,
2015-05-23 08:12:00,56.7,51.0,30.12,WNW,285,7.0,7.0,81,0.00,,,0.00,,2015-05-23 15:12:00,
2015-05-23 08:22:00,56.5,51.0,30.13,WNW,285,5.0,6.0,81,0.00,,,0.00,,2015-05-23 15:22:00,
2015-05-23 08:32:00,56.6,51.0,30.13,West,276,6.0,7.0,81,0.00,,,0.00,,2015-05-23 15:32:00,
2015-05-23 08:42:00,56.7,51.0,30.13,WNW,292,9.0,9.0,81,0.00,,,0.00,,2015-05-23 15:42:00,
2015-05-23 08:52:00,56.7,51.0,30.13,WNW,291,3.0,8.0,82,0.00,,,0.00,,2015-05-23 15:52:00,
2015-05-23 09:02:00,56.7,51.0,30.14,West,277,5.0,7.0,82,0.00,,,0.00,,2015-05-23 16:02:00,
2015-05-23 09:12:00,56.8,51.0,30.13,West,278,6.0,6.0,82,0.00,,,0.00,,2015-05-23 16:12:00,
2015-05-23 09:22:00,56.8,51.0,30.13,WNW,291,5.0,8.0,82,0.00,,,0.00,,2015-05-23 16:22:00,
2015-05-23 09:32:00,57.3,52.0,30.13,West,268,5.0,7.0,82,0.00,,,0.00,,2015-05-23 16:32:00,
2015-05-23 09:42:00,57.2,51.0,30.13,West,277,7.0,8.0,81,0.00,,,0.00,,2015-05-23 16:42:00,
2015-05-23 09:52:00,57.5,52.0,30.13,WNW,284,7.0,8.0,81,0.00,,,0.00,,2015-05-23 16:52:00,
2015-05-23 10:02:00,57.7,52.0,30.13,West,270,7.0,8.0,81,0.00,,,0.00,,2015-05-23 17:02:00,
2015-05-23 10:12:00,57.9,51.0,30.13,WNW,285,10.0,10.0,79,0.00,,,0.00,,2015-05-23 17:12:00,
2015-05-23 10:22:00,58.1,52.0,30.13,West,272,8.0,8.0,79,0.00,,,0.00,,2015-05-23 17:22:00,
2015-05-23 10:32:00,58.0,52.0,30.13,West,281,10.0,10.0,80,0.00,,,0.00,,2015-05-23 17:32:00,
2015-05-23 10:42:00,57.7,52.0,30.13,West,269,12.0,13.0,80,0.00,,,0.00,,2015-05-23 17:42:00,
2015-05-23 10:52:00,57.4,52.0,30.13,West,271,11.0,12.0,81,0.00,,,0.00,,2015-05-23 17:52:00,
2015-05-23 11:02:00,58.0,52.0,30.13,West,267,9.0,9.0,81,0.00,,,0.00,,2015-05-23 18:02:00,
2015-05-23 11:12:00,58.0,52.0,30.13,West,279,8.0,8.0,80,0.00,,,0.00,,2015-05-23 18:12:00,
2015-05-23 11:22:00,58.7,52.0,30.13,West,275,13.0,13.0,77,0.00,,,0.00,,2015-05-23 18:22:00,
2015-05-23 11:32:00,58.9,52.0,30.12,West,269,13.0,14.0,77,0.00,,,0.00,,2015-05-23 18:32:00,
2015-05-23 11:42:00,59.4,51.0,30.13,WNW,286,8.0,12.0,75,0.00,,,0.00,,2015-05-23 18:42:00,
2015-05-23 11:52:00,59.7,52.0,30.12,WNW,283,12.0,12.0,75,0.00,,,0.00,,2015-05-23 18:52:00,
2015-05-23 12:02:00,59.7,51.0,30.12,West,276,14.0,15.0,74,0.00,,,0.00,,2015-05-23 19:02:00,
2015-05-23 12:12:00,59.5,52.0,30.12,WNW,289,12.0,16.0,75,0.00,,,0.00,,2015-05-23 19:12:00,
2015-05-23 12:22:00,59.4,51.0,30.12,West,261,9.0,13.0,75,0.00,,,0.00,,2015-05-23 19:22:00,
2015-05-23 12:32:00,59.8,52.0,30.12,West,273,13.0,15.0,74,0.00,,,0.00,,2015-05-23 19:32:00,
2015-05-23 12:42:00,59.7,51.0,30.12,West,269,15.0,16.0,73,0.00,,,0.00,,2015-05-23 19:42:00,
2015-05-23 12:52:00,61.1,52.0,30.12,West,277,7.0,13.0,71,0.00,,,0.00,,2015-05-23 19:52:00,
2015-05-23 13:02:00,61.0,52.0,30.12,West,269,11.0,15.0,71,0.00,,,0.00,,2015-05-23 20:02:00,
2015-05-23 13:12:00,59.1,50.0,30.12,West,279,18.0,19.0,71,0.00,,,0.00,,2015-05-23 20:12:00,
2015-05-23 13:22:00,58.3,50.0,30.12,West,261,14.0,18.0,74,0.00,,,0.00,,2015-05-23 20:22:00,
2015-05-23 13:32:00,58.5,50.0,30.12,West,270,12.0,16.0,74,0.00,,,0.00,,2015-05-23 20:32:00,
2015-05-23 13:42:00,58.7,50.0,30.12,West,273,12.0,15.0,73,0.00,,,0.00,,2015-05-23 20:42:00,
2015-05-23 13:52:00,58.2,50.0,30.11,West,271,12.0,18.0,74,0.00,,,0.00,,2015-05-23 20:52:00,
2015-05-23 14:02:00,58.3,50.0,30.11,WNW,287,13.0,13.0,74,0.00,,,0.00,,2015-05-23 21:02:00,
2015-05-23 14:12:00,57.7,50.0,30.11,West,279,13.0,16.0,76,0.00,,,0.00,,2015-05-23 21:12:00,
2015-05-23 14:22:00,57.6,50.0,30.11,West,273,11.0,15.0,76,0.00,,,0.00,,2015-05-23 21:22:00,
2015-05-23 14:32:00,57.7,50.0,30.11,West,273,13.0,19.0,75,0.00,,,0.00,,2015-05-23 21:32:00,
2015-05-23 14:42:00,57.7,50.0,30.10,North,0,255.0,255.0,75,0.00,,,0.00,,2015-05-23 21:42:00,
2015-05-23 14:52:00,58.1,49.0,30.10,West,271,14.0,17.0,73,0.00,,,0.00,,2015-05-23 21:52:00,
2015-05-23 15:02:00,58.5,50.0,30.10,West,269,17.0,18.0,73,0.00,,,0.00,,2015-05-23 22:02:00,
2015-05-23 15:12:00,58.6,50.0,30.10,West,261,17.0,17.0,73,0.00,,,0.00,,2015-05-23 22:12:00,
2015-05-23 15:22:00,59.0,50.0,30.09,West,281,14.0,22.0,72,0.00,,,0.00,,2015-05-23 22:22:00,
2015-05-23 15:32:00,58.7,50.0,30.09,West,271,16.0,18.0,74,0.00,,,0.00,,2015-05-23 22:32:00,
2015-05-23 15:42:00,59.2,50.0,30.08,West,276,14.0,20.0,72,0.00,,,0.00,,2015-05-23 22:42:00,
2015-05-23 15:52:00,59.0,50.0,30.08,West,271,19.0,19.0,73,0.00,,,0.00,,2015-05-23 22:52:00,
2015-05-23 16:02:00,59.2,50.0,30.07,West,273,18.0,20.0,72,0.00,,,0.00,,2015-05-23 23:02:00,
2015-05-23 16:12:00,58.7,50.0,30.07,West,263,20.0,20.0,73,0.00,,,0.00,,2015-05-23 23:12:00,
2015-05-23 16:22:00,58.6,50.0,30.07,West,273,13.0,17.0,73,0.00,,,0.00,,2015-05-23 23:22:00,
2015-05-23 16:32:00,58.4,50.0,30.07,West,270,19.0,19.0,73,0.00,,,0.00,,2015-05-23 23:32:00,
2015-05-23 16:42:00,58.6,50.0,30.07,West,263,15.0,22.0,73,0.00,,,0.00,,2015-05-23 23:42:00,
2015-05-23 16:52:00,58.9,50.0,30.07,West,278,16.0,17.0,72,0.00,,,0.00,,2015-05-23 23:52:00,
2015-05-23 17:02:00,58.5,50.0,30.07,West,262,11.0,13.0,74,0.00,,,0.00,,2015-05-24 00:02:00,
2015-05-23 17:12:00,59.1,51.0,30.07,West,264,15.0,15.0,74,0.00,,,0.00,,2015-05-24 00:12:00,
2015-05-23 17:22:00,59.1,50.0,30.07,WNW,285,7.0,12.0,72,0.00,,,0.00,,2015-05-24 00:22:00,
2015-05-23 17:32:00,58.9,50.0,30.07,West,261,6.0,15.0,71,0.00,,,0.00,,2015-05-24 00:32:00,
2015-05-23 17:42:00,57.9,49.0,30.07,WNW,290,13.0,19.0,73,0.00,,,0.00,,2015-05-24 00:42:00,
2015-05-23 17:52:00,58.2,50.0,30.06,WSW,252,14.0,15.0,73,0.00,,,0.00,,2015-05-24 00:52:00,
2015-05-23 18:02:00,57.8,50.0,30.06,West,275,19.0,19.0,74,0.00,,,0.00,,2015-05-24 01:02:00,
2015-05-23 18:12:00,57.9,50.0,30.06,West,275,15.0,19.0,74,0.00,,,0.00,,2015-05-24 01:12:00,
2015-05-23 18:22:00,58.2,50.0,30.06,WNW,298,10.0,13.0,73,0.00,,,0.00,,2015-05-24 01:22:00,
2015-05-23 18:32:00,57.9,49.0,30.06,WNW,288,12.0,17.0,73,0.00,,,0.00,,2015-05-24 01:32:00,
2015-05-23 18:42:00,57.5,49.0,30.06,West,271,12.0,16.0,73,0.00,,,0.00,,2015-05-24 01:42:00,
2015-05-23 18:52:00,57.2,49.0,30.07,West,275,14.0,14.0,74,0.00,,,0.00,,2015-05-24 01:52:00,
2015-05-23 19:02:00,56.8,49.0,30.07,West,278,14.0,14.0,75,0.00,,,0.00,,2015-05-24 02:02:00,
2015-05-23 19:12:00,56.6,49.0,30.07,WNW,291,12.0,14.0,75,0.00,,,0.00,,2015-05-24 02:12:00,
2015-05-23 19:22:00,56.4,49.0,30.07,West,276,7.0,11.0,76,0.00,,,0.00,,2015-05-24 02:22:00,
2015-05-23 19:32:00,56.1,49.0,30.07,NW,306,6.0,10.0,76,0.00,,,0.00,,2015-05-24 02:32:00,
2015-05-23 19:42:00,56.0,49.0,30.07,WNW,294,8.0,14.0,77,0.00,,,0.00,,2015-05-24 02:42:00,
2015-05-23 19:52:00,56.0,49.0,30.07,WNW,294,11.0,11.0,76,0.00,,,0.00,,2015-05-24 02:52:00,
2015-05-23 20:02:00,56.0,49.0,30.07,West,277,7.0,8.0,76,0.00,,,0.00,,2015-05-24 03:02:00,
2015-05-23 20:12:00,55.9,48.0,30.08,West,278,3.0,9.0,75,0.00,,,0.00,,2015-05-24 03:12:00,
2015-05-23 20:22:00,55.8,48.0,30.08,WNW,290,6.0,11.0,74,0.00,,,0.00,,2015-05-24 03:22:00,
2015-05-23 20:32:00,55.8,48.0,30.08,WNW,283,8.0,9.0,74,0.00,,,0.00,,2015-05-24 03:32:00,
2015-05-23 20:42:00,55.8,48.0,30.08,West,277,3.0,8.0,74,0.00,,,0.00,,2015-05-24 03:42:00,
2015-05-23 21:02:00,55.8,48.0,30.08,NW,307,2.0,8.0,74,0.00,,,0.00,,2015-05-24 04:02:00,
2015-05-23 21:12:00,55.7,48.0,30.08,West,280,5.0,7.0,74,0.00,,,0.00,,2015-05-24 04:12:00,
2015-05-23 21:32:00,55.7,48.0,30.08,NW,305,3.0,14.0,75,0.00,,,0.00,,2015-05-24 04:32:00,
2015-05-23 21:42:00,55.6,48.0,30.08,WNW,300,9.0,9.0,75,0.00,,,0.00,,2015-05-24 04:42:00,
2015-05-23 21:52:00,55.6,48.0,30.08,WNW,300,9.0,9.0,75,0.00,,,0.00,,2015-05-24 04:52:00,
2015-05-23 22:02:00,55.5,48.0,30.09,WNW,300,6.0,11.0,75,0.00,,,0.00,,2015-05-24 05:02:00,
2015-05-23 22:12:00,55.5,48.0,30.09,NW,305,8.0,8.0,75,0.00,,,0.00,,2015-05-24 05:12:00,
2015-05-23 22:22:00,55.5,48.0,30.08,WNW,294,6.0,11.0,76,0.00,,,0.00,,2015-05-24 05:22:00,
2015-05-23 22:32:00,55.5,48.0,30.08,WNW,290,9.0,10.0,76,0.00,,,0.00,,2015-05-24 05:32:00,
2015-05-23 22:42:00,55.5,48.0,30.08,WNW,288,3.0,3.0,76,0.00,,,0.00,,2015-05-24 05:42:00,
2015-05-23 22:52:00,55.4,48.0,30.08,WNW,290,4.0,6.0,76,0.00,,,0.00,,2015-05-24 05:52:00,